TimePST,TemperatureF,Dew PointF,Humidity,Sea Level PressureIn,VisibilityMPH,Wind Direction,Wind SpeedMPH,Gust SpeedMPH,PrecipitationIn,Events,Conditions,WindDirDegrees,DateUTC
12:15 AM,33.8,32.0,93,30.21,0.8,Calm,Calm,-,N/A,,Unknown,0,2012-12-11 08:15:00
12:35 AM,33.8,32.0,93,30.20,0.2,Calm,Calm,-,N/A,,Unknown,0,2012-12-11 08:35:00
12:55 AM,33.8,32.0,93,30.19,0.2,Calm,Calm,-,N/A,,Unknown,0,2012-12-11 08:55:00
1:15 AM,33.8,32.0,93,30.19,0.8,Calm,Calm,-,N/A,,Unknown,0,2012-12-11 09:15:00
1:35 AM,35.6,33.8,93,30.18,0.8,Calm,Calm,-,N/A,,Unknown,0,2012-12-11 09:35:00
1:55 AM,33.8,32.0,93,30.17,0.5,Calm,Calm,-,N/A,,Unknown,0,2012-12-11 09:55:00
2:15 AM,33.8,33.8,100,30.17,0.5,Calm,Calm,-,N/A,,Unknown,0,2012-12-11 10:15:00
2:35 AM,33.8,33.8,100,30.16,0.5,Calm,Calm,-,N/A,,Unknown,0,2012-12-11 10:35:00
2:55 AM,33.8,33.8,100,30.15,1.5,Calm,Calm,-,N/A,,Unknown,0,2012-12-11 10:55:00
3:15 AM,33.8,32.0,93,30.14,1.5,Calm,Calm,-,N/A,,Unknown,0,2012-12-11 11:15:00
3:35 AM,33.8,33.8,100,30.14,0.5,Calm,Calm,-,N/A,,Unknown,0,2012-12-11 11:35:00
3:55 AM,33.8,33.8,100,30.13,0.8,Calm,Calm,-,N/A,,Unknown,0,2012-12-11 11:55:00
4:15 AM,33.8,33.8,100,30.12,0.8,Calm,Calm,-,N/A,,Unknown,0,2012-12-11 12:15:00
4:35 AM,33.8,32.0,93,30.12,1.0,NNE,3.5,-,N/A,,Unknown,30,2012-12-11 12:35:00
4:55 AM,33.8,32.0,93,30.11,1.2,Calm,Calm,-,N/A,,Unknown,0,2012-12-11 12:55:00
5:15 AM,32.0,32.0,100,30.10,2.0,Calm,Calm,-,N/A,,Unknown,0,2012-12-11 13:15:00
5:35 AM,32.0,32.0,100,30.09,0.8,Calm,Calm,-,N/A,,Unknown,0,2012-12-11 13:35:00
5:55 AM,32.0,32.0,100,30.08,0.8,Calm,Calm,-,N/A,,Unknown,0,2012-12-11 13:55:00
6:15 AM,32.0,32.0,100,30.08,1.8,Calm,Calm,-,N/A,,Unknown,0,2012-12-11 14:15:00
6:35 AM,32.0,32.0,100,30.07,5.0,North,3.5,-,N/A,,Unknown,360,2012-12-11 14:35:00
6:55 AM,32.0,32.0,100,30.07,3.0,Calm,Calm,-,N/A,,Unknown,0,2012-12-11 14:55:00
7:15 AM,32.0,32.0,100,30.06,1.2,Calm,Calm,-,N/A,,Unknown,0,2012-12-11 15:15:00
7:35 AM,32.0,32.0,100,30.06,0.5,Calm,Calm,-,N/A,,Unknown,0,2012-12-11 15:35:00
7:55 AM,32.0,32.0,100,30.06,0.2,Calm,Calm,-,N/A,,Unknown,0,2012-12-11 15:55:00
8:15 AM,32.0,32.0,100,30.05,0.5,Calm,Calm,-,N/A,,Unknown,0,2012-12-11 16:15:00
8:35 AM,32.0,32.0,100,30.04,0.5,Calm,Calm,-,N/A,,Unknown,0,2012-12-11 16:35:00
8:55 AM,32.0,32.0,100,30.04,0.8,Calm,Calm,-,N/A,,Unknown,0,2012-12-11 16:55:00
9:15 AM,32.0,32.0,100,30.03,1.5,Calm,Calm,-,N/A,,Unknown,0,2012-12-11 17:15:00
9:35 AM,33.8,32.0,93,30.03,1.0,SSW,3.5,-,N/A,,Unknown,200,2012-12-11 17:35:00
9:55 AM,33.8,32.0,93,30.02,1.2,Calm,Calm,-,N/A,,Unknown,0,2012-12-11 17:55:00
10:15 AM,33.8,32.0,93,30.01,0.8,Calm,Calm,-,N/A,,Unknown,0,2012-12-11 18:15:00
10:35 AM,33.8,32.0,93,30.01,0.8,SSW,3.5,-,N/A,,Unknown,200,2012-12-11 18:35:00
10:55 AM,33.8,32.0,93,30.00,0.8,Calm,Calm,-,N/A,,Unknown,0,2012-12-11 18:55:00
11:15 AM,33.8,33.8,100,29.99,0.8,Calm,Calm,-,N/A,,Unknown,0,2012-12-11 19:15:00
11:35 AM,35.6,33.8,93,29.98,0.5,Calm,Calm,-,N/A,,Unknown,0,2012-12-11 19:35:00
11:55 AM,35.6,35.6,100,29.97,0.5,Calm,Calm,-,N/A,,Unknown,0,2012-12-11 19:55:00
12:15 PM,35.6,35.6,100,29.95,1.2,Calm,Calm,-,N/A,,Unknown,0,2012-12-11 20:15:00
12:35 PM,35.6,35.6,100,29.93,10.0,Calm,Calm,-,N/A,,Unknown,0,2012-12-11 20:35:00
12:55 PM,37.4,35.6,93,29.92,10.0,Calm,Calm,-,N/A,,Unknown,0,2012-12-11 20:55:00
1:15 PM,37.4,37.4,100,29.90,10.0,Calm,Calm,-,N/A,,Unknown,0,2012-12-11 21:15:00
1:35 PM,37.4,37.4,100,29.89,10.0,Calm,Calm,-,N/A,,Unknown,0,2012-12-11 21:35:00
1:55 PM,37.4,37.4,100,29.87,9.0,Calm,Calm,-,N/A,,Unknown,0,2012-12-11 21:55:00
2:15 PM,37.4,37.4,100,29.85,10.0,Calm,Calm,-,N/A,,Unknown,0,2012-12-11 22:15:00
2:35 PM,37.4,37.4,100,29.84,10.0,Calm,Calm,-,N/A,,Unknown,0,2012-12-11 22:35:00
2:55 PM,39.2,37.4,93,29.82,10.0,Calm,Calm,-,N/A,,Unknown,0,2012-12-11 22:55:00
3:15 PM,39.2,37.4,93,29.81,10.0,Calm,Calm,-,N/A,,Unknown,0,2012-12-11 23:15:00
3:35 PM,39.2,37.4,93,29.79,9.0,Calm,Calm,-,N/A,,Unknown,0,2012-12-11 23:35:00
3:55 PM,39.2,37.4,93,29.79,8.0,Calm,Calm,-,N/A,,Unknown,0,2012-12-11 23:55:00
4:15 PM,39.2,37.4,93,29.78,8.0,Calm,Calm,-,N/A,,Unknown,0,2012-12-12 00:15:00
4:35 PM,39.2,37.4,93,29.80,8.0,Calm,Calm,-,N/A,,Unknown,0,2012-12-12 00:35:00
4:55 PM,39.2,37.4,93,29.81,7.0,Calm,Calm,-,N/A,,Unknown,0,2012-12-12 00:55:00
5:15 PM,39.2,37.4,93,29.80,5.0,Calm,Calm,-,N/A,,Unknown,0,2012-12-12 01:15:00
5:35 PM,39.2,37.4,93,29.79,4.0,Calm,Calm,-,N/A,,Unknown,0,2012-12-12 01:35:00
5:55 PM,39.2,37.4,93,29.79,3.0,Calm,Calm,-,0.01,,Unknown,0,2012-12-12 01:55:00
6:15 PM,39.2,37.4,93,29.78,2.0,Calm,Calm,-,0.02,,Unknown,0,2012-12-12 02:15:00
6:35 PM,37.4,37.4,100,29.78,2.5,Calm,Calm,-,0.04,,Unknown,0,2012-12-12 02:35:00
6:55 PM,37.4,37.4,100,29.77,3.0,Calm,Calm,-,0.06,,Unknown,0,2012-12-12 02:55:00
7:15 PM,37.4,37.4,100,29.77,7.0,Calm,Calm,-,0.01,,Unknown,0,2012-12-12 03:15:00
7:35 PM,37.4,35.6,93,29.77,9.0,Calm,Calm,-,0.01,,Unknown,0,2012-12-12 03:35:00
7:55 PM,37.4,35.6,93,29.76,10.0,Calm,Calm,-,0.01,,Unknown,0,2012-12-12 03:55:00
8:15 PM,37.4,35.6,93,29.75,10.0,Calm,Calm,-,N/A,,Unknown,0,2012-12-12 04:15:00
8:35 PM,37.4,35.6,93,29.75,5.0,Calm,Calm,-,N/A,,Unknown,0,2012-12-12 04:35:00
8:55 PM,37.4,37.4,100,29.74,9.0,Calm,Calm,-,N/A,,Unknown,0,2012-12-12 04:55:00
9:15 PM,37.4,35.6,93,29.74,10.0,Calm,Calm,-,N/A,,Unknown,0,2012-12-12 05:15:00
9:35 PM,37.4,35.6,93,29.73,10.0,Calm,Calm,-,N/A,,Unknown,0,2012-12-12 05:35:00
9:55 PM,37.4,35.6,93,29.74,10.0,Calm,Calm,-,N/A,,Unknown,0,2012-12-12 05:55:00
10:15 PM,37.4,35.6,93,29.74,8.0,Calm,Calm,-,N/A,,Unknown,0,2012-12-12 06:15:00
10:35 PM,37.4,35.6,93,29.75,10.0,South,3.5,-,N/A,,Unknown,190,2012-12-12 06:35:00
10:55 PM,37.4,35.6,93,29.75,7.0,SSW,4.6,-,N/A,,Unknown,210,2012-12-12 06:55:00
11:15 PM,37.4,35.6,93,29.74,10.0,SSE,5.8,-,N/A,,Unknown,160,2012-12-12 07:15:00
11:35 PM,37.4,35.6,93,29.75,10.0,South,4.6,-,N/A,,Unknown,170,2012-12-12 07:35:00
11:55 PM,37.4,35.6,93,29.75,10.0,South,4.6,-,N/A,,Unknown,170,2012-12-12 07:55:00